Погода в Токуре

Россия / Амурская область     53°08′14″N   132°53′17″E
темп.,
°C
ветер,
м/с
пор.,
м/с
влажн.,
%
обл.,
%
осадки,
мм/ч
давл.,
гПа
погр.,
м
13 мая, чт
чт1300:00+4всв2282100 0.0 100517
03:00+4св1178100 0.0 100418
06:00+5ссв1274100 0.1 1004110
09:00+8всв3560100 0.1 10021012
12:00+9юв1368100 0.3 10021167
15:00+7св1287100 2.2 1003555
18:00+6всв1196100 4.6 1004233
21:00+5св119589 6.3 100630
14 мая, пт
пт1400:00+4с119795 0.1 100716
03:00+4ссз1198100 0.1 100857
06:00+4зсз0097100 0.1 100988
09:00+8юв1274100 0.2 1009871
12:00+11ююв2358100 0.3 10071614
15:00+10ююв3559100 0.3 10061361
18:00+8вюв2586100 0.7 1005260
21:00+7вюв31184100 0.9 1002502
15 мая, сб
сб1500:00+6юв41585100 0.6 10001361
03:00+6ююв41491100 3.4 9981390
06:00+5юз2597100 4.8 997651
09:00+4ююз2488100 7.7 998649
12:00+5юз3579100 0.4 997996
15:00+6з1376100 0.9 995982
18:00+1ссз2299100 2.4 997308
21:00−1ссз2398100 3.4 999222
16 мая, вс
вс1600:00−2зсз129793 0.2 999213
03:00−1з1198100 0.6 999112
06:000зюз1195100 0.6 998203
09:00+2зсз1196100 1.3 998212
12:00+4зсз238072 0.4 998831
15:00+7зсз246673 0.7 9981369
18:00+5зюз2483100 0.3 999739
21:00+4зюз0193100 1.3 100014
17 мая, пн
пн1700:00+3ю1198100 0.4 100138
03:00+3ююв1199100 1.1 100036
06:00+3ю129799 1.1 1000138
09:00+7з248173 1.5 999816
12:00+10з4670100 1.7 9971573
15:00+10з3678100 4.2 9971059
18:00+8зсз158589 3.1 998578
21:00+4юв1194100 3.5 100010